CW4745 Weather Reports


Display with metric or nautical units.
time (UTC)temp
F
wind
direction
speed
MPH
gust
MPH
rain 1hr
in
rain 24hr
in
rain mn
in
humidity
%
barometer
mb
20180426224917 48 199 5.0 12.0 0.00 0.00 0.00 84 1014.0
20180426223913 48 185 4.0 13.0 0.00 0.00 0.00 83 1014.1
20180426222914 48 211 5.0 13.0 0.00 0.00 0.00 82 1014.2
20180426221912 48 214 7.0 12.0 0.00 0.00 0.00 82 1014.2
20180426220912 48 194 5.0 11.0 0.00 0.00 0.00 81 1014.1
20180426215913 49 211 6.0 14.0 0.00 0.00 0.00 81 1014.2
20180426214914 49 174 5.0 13.0 0.00 0.00 0.00 80 1014.2
20180426213913 49 205 6.0 14.0 0.00 0.00 0.00 80 1014.3
20180426212911 49 207 6.0 15.0 0.00 0.00 0.00 79 1014.4
20180426211915 49 233 8.0 15.0 0.00 0.00 0.00 79 1014.2
20180426210912 49 240 4.0 15.0 0.00 0.00 0.00 79 1014.3
20180426205912 49 229 7.0 15.0 0.00 0.00 0.00 79 1014.3
20180426204911 49 202 6.0 13.0 0.00 0.00 0.00 79 1014.2
20180426203911 49 207 6.0 18.0 0.00 0.01 0.00 79 1014.5
20180426202911 49 254 6.0 14.0 0.00 0.01 0.00 79 1014.5
20180426201908 49 219 7.0 13.0 0.00 0.01 0.00 78 1014.5
20180426200909 49 229 5.0 14.0 0.00 0.01 0.00 78 1014.4
20180426195910 49 199 7.0 14.0 0.00 0.01 0.00 78 1014.5
20180426194911 49 212 6.0 14.0 0.00 0.01 0.00 78 1014.5
20180426193909 49 194 8.0 14.0 0.00 0.01 0.00 78 1014.4
20180426192909 49 187 7.0 14.0 0.00 0.01 0.00 78 1014.4
20180426191908 49 204 7.0 15.0 0.00 0.01 0.00 78 1014.4
20180426190914 49 202 11.0 19.0 0.00 0.01 0.00 78 1014.3
20180426185911 49 276 10.0 20.0 0.00 0.01 0.00 78 1014.4
20180426184908 50 264 8.0 17.0 0.00 0.01 0.00 77 1014.4
20180426183909 50 199 4.0 16.0 0.00 0.01 0.00 77 1014.5
20180426182908 50 190 6.0 18.0 0.00 0.01 0.00 77 1014.5
20180426181907 50 198 5.0 16.0 0.00 0.01 0.00 77 1014.4
20180426180906 51 228 6.0 17.0 0.00 0.01 0.00 76 1014.4
20180426175910 51 263 6.0 16.0 0.00 0.01 0.00 75 1014.6
20180426174907 51 190 8.0 22.0 0.00 0.01 0.00 73 1014.5
20180426173907 52 243 5.0 19.0 0.00 0.01 0.00 72 1014.5
20180426172905 52 264 7.0 18.0 0.00 0.01 0.00 71 1014.4
20180426171907 52 205 9.0 22.0 0.00 0.01 0.00 70 1014.3
20180426170909 53 229 8.0 24.0 0.00 0.01 0.00 70 1014.2
20180426165915 53 355 11.0 22.0 0.00 0.01 0.00 69 1014.5
20180426164904 53 188 9.0 21.0 0.00 0.01 0.00 68 1014.5
20180426163906 54 285 12.0 22.0 0.00 0.01 0.00 68 1014.3
20180426162907 54 221 10.0 18.0 0.00 0.01 0.00 68 1014.3
20180426161904 54 246 13.0 23.0 0.00 0.01 0.00 67 1014.4
20180426160905 53 225 13.0 26.0 0.00 0.01 0.00 68 1014.4
20180426155912 53 228 12.0 26.0 0.00 0.01 0.00 68 1014.4
20180426154904 53 246 13.0 24.0 0.00 0.01 0.00 66 1014.3
20180426153903 54 245 11.0 22.0 0.00 0.01 0.00 66 1014.4
20180426152906 54 287 13.0 24.0 0.00 0.01 0.00 65 1014.4
20180426151903 54 198 14.0 26.0 0.00 0.01 0.00 65 1014.5
20180426150903 55 215 17.0 26.0 0.00 0.01 0.00 65 1014.8
20180426145901 55 264 9.0 23.0 0.00 0.01 0.00 66 1014.6
20180426144902 55 245 11.0 28.0 0.00 0.01 0.00 65 1014.7
20180426143911 54 195 12.0 28.0 0.00 0.01 0.00 67 1014.8
20180426142901 54 264 13.0 29.0 0.00 0.01 0.00 68 1014.8
20180426141907 54 236 13.0 28.0 0.00 0.01 0.00 69 1014.9
20180426140908 54 276 11.0 20.0 0.00 0.01 0.00 69 1014.7
20180426135901 53 280 16.0 27.0 0.00 0.01 0.00 69 1015.0
20180426134906 54 242 13.0 24.0 0.00 0.01 0.00 68 1015.1
20180426133900 54 243 16.0 27.0 0.00 0.01 0.00 68 1015.0
20180426132900 54 238 14.0 24.0 0.00 0.01 0.00 67 1014.9
20180426131900 55 216 11.0 28.0 0.00 0.02 0.00 67 1014.8
20180426130859 55 238 13.0 26.0 0.00 0.02 0.00 66 1014.8
20180426125904 54 235 15.0 29.0 0.00 0.02 0.00 66 1014.8
20180426124858 54 256 12.0 24.0 0.00 0.02 0.00 68 1014.8
20180426123900 54 230 16.0 27.0 0.00 0.02 0.00 67 1014.8
20180426122859 54 261 15.0 29.0 0.00 0.02 0.00 67 1014.7
20180426121858 54 205 10.0 24.0 0.00 0.02 0.00 69 1014.6
20180426120900 54 250 12.0 26.0 0.00 0.02 0.00 69 1014.5
20180426115857 54 222 14.0 24.0 0.00 0.02 0.00 67 1014.5
20180426114857 54 229 10.0 22.0 0.00 0.02 0.00 68 1014.5
20180426113857 54 261 15.0 26.0 0.00 0.02 0.00 68 1014.5
20180426112859 55 247 13.0 21.0 0.00 0.02 0.00 68 1014.3
20180426111908 54 238 11.0 24.0 0.00 0.02 0.00 69 1014.3
20180426110857 54 246 11.0 22.0 0.00 0.02 0.00 69 1014.2
20180426105857 54 277 14.0 22.0 0.00 0.02 0.00 69 1014.2
20180426103855 52 177 11.0 22.0 0.00 0.02 0.00 71 1014.0
20180426101855 52 245 15.0 23.0 0.00 0.02 0.00 72 1013.9
20180426100853 52 270 11.0 22.0 0.00 0.02 0.00 71 1013.7
20180426095853 53 269 17.0 29.0 0.00 0.02 0.00 71 1013.7
20180426094854 51 267 12.0 19.0 0.00 0.02 0.00 74 1013.7
20180426093854 51 253 13.0 23.0 0.00 0.02 0.00 74 1013.8
20180426092854 51 242 11.0 21.0 0.00 0.02 0.00 74 1013.7
20180426090852 51 269 13.0 24.0 0.00 0.02 0.00 74 1013.3
20180426085851 51 235 14.0 26.0 0.00 0.02 0.00 73 1013.1
20180426084851 52 284 14.0 22.0 0.00 0.02 0.00 73 1013.1
20180426083852 52 270 15.0 27.0 0.00 0.02 0.00 73 1013.1
20180426082851 51 273 13.0 23.0 0.00 0.02 0.00 74 1012.8
20180426081850 51 239 10.0 22.0 0.00 0.02 0.00 75 1012.9
20180426080850 51 270 13.0 23.0 0.00 0.02 0.00 75 1012.7
20180426075852 51 263 13.0 21.0 0.00 0.02 0.00 76 1012.6
20180426074851 50 267 13.0 23.0 0.00 0.02 0.00 76 1012.7
20180426073849 50 263 9.0 26.0 0.00 0.02 0.00 77 1012.4
20180426072849 50 246 12.0 20.0 0.00 0.02 0.00 78 1012.5
20180426071849 49 233 14.0 24.0 0.00 0.02 0.00 78 1012.4
20180426070848 49 298 13.0 22.0 0.00 0.02 0.00 79 1012.3
20180426065848 48 269 13.0 18.0 0.00 0.02 0.00 80 1012.2
20180426064849 49 260 11.0 23.0 0.00 0.02 0.00 79 1012.2
20180426063848 49 290 10.0 21.0 0.00 0.02 0.00 79 1011.9
20180426062849 49 238 12.0 18.0 0.00 0.02 0.00 80 1011.9
20180426061848 48 188 12.0 21.0 0.00 0.02 0.00 80 1011.7
20180426060847 48 252 12.0 20.0 0.00 0.02 0.00 81 1011.6
20180426055847 47 232 8.0 20.0 0.00 0.02 0.00 82 1011.5
20180426054847 47 271 11.0 21.0 0.00 0.02 0.00 82 1011.5
20180426053847 47 257 10.0 19.0 0.00 0.02 0.00 82 1011.3
20180426052846 47 259 9.0 19.0 0.00 0.02 0.00 82 1011.2
20180426051845 47 245 11.0 18.0 0.00 0.02 0.00 82 1011.1
20180426050845 47 252 10.0 20.0 0.00 0.02 0.00 83 1010.9
20180426045844 47 273 9.0 16.0 0.00 0.02 0.00 83 1010.9
20180426044843 47 226 10.0 16.0 0.00 0.02 0.00 83 1010.9
20180426043844 47 250 8.0 19.0 0.00 0.02 0.00 83 1010.7
20180426042845 47 287 10.0 17.0 0.00 0.02 0.00 83 1010.7
20180426041855 47 259 7.0 16.0 0.00 0.02 0.00 83 1010.6
20180426040843 47 259 9.0 17.0 0.00 0.02 0.00 83 1010.5
20180426035844 47 293 11.0 17.0 0.00 0.02 0.00 82 1010.5
20180426034842 48 249 13.0 18.0 0.00 0.02 0.00 82 1010.6
20180426033842 48 263 10.0 18.0 0.00 0.02 0.00 82 1010.5
20180426032842 48 175 9.0 20.0 0.00 0.02 0.00 82 1010.3
20180426031843 48 254 11.0 18.0 0.00 0.02 0.00 82 1010.4
20180426030841 48 240 13.0 19.0 0.00 0.02 0.00 83 1010.4
20180426025841 47 214 10.0 17.0 0.00 0.02 0.00 82 1010.4
20180426024842 47 242 10.0 16.0 0.00 0.02 0.00 82 1010.2
20180426023841 47 276 9.0 15.0 0.00 0.02 0.00 82 1010.3
20180426022843 47 252 9.0 19.0 0.00 0.02 0.00 81 1010.1
20180426021840 47 226 11.0 18.0 0.00 0.02 0.00 81 1010.0
20180426020841 47 259 8.0 16.0 0.00 0.02 0.00 82 1009.9
20180426015840 48 284 9.0 16.0 0.00 0.02 0.00 82 1009.9
20180426014840 48 256 9.0 17.0 0.00 0.02 0.00 82 1009.9
20180426013840 48 252 9.0 15.0 0.00 0.02 0.00 83 1009.8
20180426012839 48 276 9.0 14.0 0.00 0.02 0.00 84 1009.7
20180426011839 48 249 5.0 15.0 0.00 0.03 0.00 84 1009.6
20180426010838 48 270 7.0 17.0 0.00 0.03 0.00 84 1009.6
20180426005839 48 261 8.0 16.0 0.00 0.04 0.00 83 1009.7
20180426004837 48 256 9.0 15.0 0.00 0.04 0.00 83 1009.7
20180426003838 48 264 9.0 14.0 0.00 0.04 0.00 83 1009.7
20180426002839 48 259 11.0 15.0 0.00 0.04 0.00 84 1009.7
20180426001838 48 285 8.0 15.0 0.00 0.04 0.00 84 1009.7
20180426000837 48 245 6.0 17.0 0.00 0.04 0.00 84 1009.8
20180425235838 48 246 8.0 13.0 0.00 0.04 0.00 83 1009.7
20180425234838 48 269 5.0 13.0 0.00 0.05 0.00 83 1009.7
20180425233841 48 216 9.0 14.0 0.00 0.05 0.00 83 1009.7
20180425232842 48 257 8.0 15.0 0.00 0.05 0.00 83 1009.7
20180425231837 48 304 8.0 15.0 0.00 0.05 0.00 83 1009.9
20180425230836 48 252 7.0 15.0 0.00 0.05 0.00 83 1009.8
20180425225836 48 228 7.0 16.0 0.00 0.05 0.00 83 1009.8